OneWeb SL0163

operational
NORAD ID: 48061 Int'l Des: 2021-025 Owner: ONEWEBN Country: UK Constellation: oneweb
LEOCIRCULARPOLARONEWEB_TYPE

Über OneWeb SL0163

Beschreibung wird geladen...

Live-Position

3D-Globus wird geladen...

Nächste Überflüge

Höhenverlauf

Altitude vs Time

uPlot chart will show altitude changes over time

Zweizeiliger Elementsatz

1 48061U 21025V 25350.98260736 -.00000152 00000-0 -45002-3 0 9999
2 48061 87.8985 356.4327 0001491 86.8052 273.3248 13.13469567229760
Epoch: 16. Dez. 2025 • Age: 13 hours

Aktueller Status

Höhe 1211.6 km
Geschwindigkeit 7.25 km/s
Subsatellitenpunkt 16.61°N, 83.6°E
Startdatum 25. März 2021
Alter 4.7 years
Typ internet

Technische Details

Klassifizierung Payload
Masse 148.00 kg
Trockenmasse 140.00 kg
Gesamtmasse 148.00 kg
Länge 1.30 m
Durchmesser 1.00 m
Spannweite 5.00 m
Form Trapezoid+2 pan
Hersteller ONEWUS
Bus-Typ ARROW
Phasenstatus In Orbit
Besitzer/Staat ONEWEBN/UK

Große Konstellationen

Loading constellations...